CZ-4C DEB, 47535

Orbit data source: Space-Track

CZ-4C DEB, 47535 is space debris in LEO originally from a launch on Fri, 29 Jan 2021 UTC launched from the Jiuquan Satellite Launch Center, China (JSC). Debris objects in space refer to the collection of defunct objects orbiting the Earth. Examples of debris include non-operational satellites, rocket bodies, and fragments generated from explosions, collisions, or faulty payload assembly.

Loading next visibility...
Identifier
47535, 2021-007D
Orbit
LEO
Country
Flag of CNCN / PRC
Related business
Manufacturer
Unknown
Mission
Spacecraft
Bus & Motor
Unknown
Mass
Unknown
Launch date (UTC)
2021-01-29 (5 years ago)
Launch vehicle
Unknown
Launch site
Jiuquan Satellite Launch Center, China (JSC)
Object type
Payload
Rocket body
Debris
Shape & HBR
Unknown shape, 2.4 m
Radar Cross Section
Large (>1 m²)

Expand to show TLE details & history
Last TLE update: 2 days ago

TLE from 2 days ago
0 CZ-4C DEB
1 47535U 21007D   26171.34576201  .00000000  00000-0  14145-3 0  9997
2 47535  63.4035 146.2533 0174564   1.3468 358.7993 13.44259344264511
Epoch: 2026-06-20T08:17Z
TLE epoch observation values (Epoch: 2026-06-20T08:17:53.837Z)
Latitude
-0.00001°
Longitude
113.21726°
Altitude
964.81 km
Speed
7.434 km/s
True Right ascension
09h 45m 00s
True Declination
0° 00' 00"
Sunlit
Object was in daylight at epoch
Visualization orbit readout
Latitude
Unknown
Longitude
Unknown
Altitude
Unknown
Speed
Unknown
Apparent Right ascension
Unknown
Apparent Declination
Unknown
Sunlit
N/A
Visualization observer readout
Local Sidereal Time
21:26:29
Azimuth
Unknown
Elevation
Unknown
Doppler factor
Unknown
Orbital elements
Apogee altitude
1,222.691 km
Perigee altitude
961.877 km
Semi-major axis
7,470.421 km
Eccentricity
0.01746
Inclination
63.4035°
RAAN
146.2533°
Arg. of periapsis
1.3468°
True anomaly
358.75645°
Mean anomaly
358.7993°
Eccentric anomaly
358.77797°
Mean motion
3.36144 °/min
Orbital period
107.1 mins
BSTAR
0.00014145
Loading maneuver chart data...
Computing Atmospheric mass density...
Loading historical data...
Loading historical data...
Loading historical data...
Loading historical data...
Loading historical data...
Loading historical data...
Loading historical data...
Other satellites on launch #7 in the year 2021 (2021-01-29 UTC)

Documentation

Showing up to 5 results
|